Location: Winthrop
(48.4780°N, 120.1850°W)
Time: 16:05:23
(UTC-07:00)

Explorer 7 - Pass Details

Date: 30 January 2023
Orbit: 478 x 657 km, 50.3° (Epoch: 30 March)

Event Time Altitude Azimuth Distance (km) Brightness Sun altitude
Rises 14:29:37 0° 249° (WSW) 2,749 11.3 17.4°
Reaches altitude 10° 14:31:48 10° 249° (WSW) 1,885 10.6 17.2°
Maximum altitude 14:36:09 84° 160° (SSE) 611 7.4 16.8°
Drops below altitude 10° 14:40:45 10° 74° (ENE) 2,004 9.3 16.4°
Sets 14:43:08 0° 74° (ENE) 2,938 10.1 16.1°
